Temperature
16 16 16 16 16 16 16 16 16 16 16 16 16 16 16 15 15 15 15 15 15 14 14 14 14 14 13 13 13 13 13 13 13 13 12 12 12 12
16 16 16 16 16 16 16 16 16 16 16 15 15 15 15 15 15 15 14 14 14 14 14 13 13 13 13 13 12 12 12 12 12 12 12 11 11 11
16 16 16 16 16 16 16 16 16 16 16 15 15 15 14 14 14 14 14 13 13 13 13 13 12 12 12 12 12 11 11 11 11 11 11 10 10 10
16 15 15 15 15 15 15 15 15 15 15 15 14 14 14 13 13 13 13 12 12 12 12 12 11 11 11 11 10 10 10 10 10 10 10 9 9 9
15 15 15 15 15 15 15 15 15 15 15 15 14 13 13 13 12 12 12 11 11 11 11 10 10 10 10 10 9 9 9 9 9 9 8 8 8 8
15 15 15 14 14 14 14 14 14 14 14 14 13 13 12 12 11 11 11 10 10 10 9 9 9 9 9 9 9 8 8 8 8 8 7 7 7 7
14 14 14 14 14 14 14 14 14 14 13 13 12 12 11 11 11 10 10 10 9 9 9 8 8 8 8 8 8 7 7 7 7 7 6 6 6 6
14 14 14 13 13 13 13 13 13 13 13 12 12 11 11 10 10 10 9 9 8 8 8 8 7 7 7 7 6 6 6 6 6 6 6 6 5 5
13 13 13 13 13 13 12 12 12 12 12 11 11 11 10 10 10 9 9 9 8 7 7 7 6 6 6 6 6 5 5 5 5 5 5 5 5 5
13 12 12 12 12 12 12 12 11 11 10 10 10 10 9 9 9 9 8 8 7 7 6 6 6 6 5 5 5 5 5 5 5 4 4 4 4 4
12 12 11 11 11 11 11 11 11 10 9 9 9 9 8 8 8 8 7 7 7 6 6 6 5 5 5 5 4 4 4 4 4 4 4 4 4 4
11 11 11 11 10 10 10 10 10 9 9 8 8 8 7 7 7 7 7 6 6 5 5 5 5 5 4 4 4 4 4 4 4 4 3 3 3 3
11 10 10 10 10 9 9 9 9 8 8 8 7 7 7 6 6 6 6 6 5 5 5 5 4 4 4 4 4 3 3 3 3 3 3 3 3 3
10 10 9 9 9 9 8 8 8 8 7 7 7 6 6 6 6 5 5 5 5 5 4 4 4 4 4 3 3 3 3 3 3 3 3 3 3 2
9 9 8 8 8 7 7 7 7 7 7 6 6 5 5 5 5 5 4 4 4 4 4 4 4 3 3 3 3 3 3 3 3 2 2 2 2 2
8 8 8 7 7 7 7 6 6 6 6 6 5 5 5 4 4 4 4 4 4 3 3 3 3 3 3 3 3 3 2 2 2 2 2 2 2 2
8 7 7 7 6 6 6 6 5 5 5 5 5 4 4 4 4 4 4 3 3 3 3 3 3 3 3 3 3 2 2 2 2 2 2 2 2 2
7 7 6 6 6 6 5 5 5 5 4 4 4 4 4 4 3 3 3 3 3 3 3 3 3 3 3 3 3 2 2 2 2 2 2 2 2 2
7 6 6 6 5 5 5 5 4 4 4 4 4 4 3 3 3 3 3 3 3 3 2 2 2 2 2 2 2 2 2 2 2 2 2 2 2 2
6 6 6 5 5 5 5 4 4 4 4 4 4 4 3 3 3 3 3 3 3 2 2 2 2 2 2 2 2 2 2 2 2 2 2 2 2 2
6 5 5 5 5 5 4 4 4 4 4 4 4 3 3 3 3 3 3 2 2 2 2 2 2 2 2 2 2 2 2 2 2 2 2 1 1 1
5 5 5 5 5 5 4 4 4 4 4 4 3 3 3 3 3 3 2 2 2 2 2 2 2 2 2 2 2 2 2 2 2 2 2 2 1 1
5 5 5 5 5 5 4 4 4 4 4 4 3 3 3 3 3 3 2 2 2 2 2 2 2 2 2 2 2 2 2 2 2 2 2 2 2 2
Wind_Speed
5 5 4 3 4 4 4 4 4 3 1 1 1 3 5 6 8 9 10 12 13 13 13 13 13 13 13 13 12 12 12 11 11 11 10 10 9 9
4 4 4 3 3 3 4 3 3 4 2 1 2 3 6 8 10 12 13 15 15 15 15 15 15 15 14 14 13 13 13 12 12 12 12 12 11 11
3 4 4 3 3 2 3 3 3 3 4 2 2 4 5 7 9 12 13 14 15 16 16 16 16 16 15 14 14 13 13 13 13 12 12 11 11 11
4 4 3 3 3 3 3 3 3 3 5 5 3 3 5 6 7 9 11 13 14 17 17 17 16 15 15 14 14 13 13 12 12 11 11 10 10 10
3 4 4 4 3 3 4 4 4 5 5 7 5 3 4 4 6 8 10 10 12 13 15 16 16 15 14 14 13 12 11 11 10 10 9 9 8 8
3 3 3 4 4 4 4 5 6 7 7 8 6 4 4 3 5 6 6 6 7 10 12 13 14 14 13 13 12 11 11 10 9 9 9 8 8 8
5 4 5 6 7 6 5 6 7 7 8 8 7 5 4 4 4 3 6 6 6 6 6 8 9 9 10 10 10 10 9 9 9 9 9 9 9 8
6 6 7 8 10 12 12 11 10 9 9 7 6 6 5 3 3 5 4 4 3 4 3 5 6 5 7 8 10 10 10 9 9 9 9 9 9 9
6 6 6 8 10 11 14 16 15 14 11 8 9 6 5 4 5 6 5 5 3 1 2 4 4 4 5 7 10 11 11 10 10 10 10 10 10 10
6 7 8 7 8 11 12 12 11 10 10 9 8 7 6 5 5 6 6 6 5 4 3 3 3 2 3 6 9 10 11 11 11 10 11 11 12 12
7 8 9 9 12 14 13 13 12 10 16 18 17 15 14 13 11 7 6 6 4 4 3 2 2 2 2 3 7 10 10 10 11 11 11 12 13 11
7 8 10 10 11 12 11 12 12 9 9 11 12 13 13 12 11 7 5 5 3 2 2 2 2 2 2 2 4 7 8 9 11 11 12 13 14 10
7 6 6 12 13 12 11 10 12 10 10 10 9 8 9 8 9 8 6 4 4 3 1 1 1 2 1 2 3 4 6 6 7 8 11 13 13 10
8 7 9 14 15 13 11 13 14 12 9 9 8 7 6 6 6 8 9 9 7 4 2 2 1 1 1 1 2 4 5 6 5 6 9 11 12 12
9 13 14 16 15 12 14 14 11 8 8 8 7 5 4 4 5 6 8 10 10 8 6 4 2 1 0 1 2 3 4 5 5 7 8 9 8 8
11 13 15 15 12 11 10 8 7 6 7 7 6 4 4 4 5 4 4 4 4 4 6 6 3 1 1 1 1 3 4 4 5 7 8 8 9 8
9 8 7 7 7 7 6 6 6 5 6 5 5 5 5 5 4 3 3 3 3 3 4 5 6 4 2 2 2 4 5 5 6 6 6 7 7 9
10 8 7 6 6 6 6 5 5 5 5 5 5 4 4 4 4 3 3 3 3 2 3 3 3 3 3 2 3 3 5 5 6 7 5 5 7 9
8 7 6 6 6 5 5 5 4 4 4 4 4 4 3 3 3 3 2 2 2 2 3 3 3 3 4 5 5 3 4 6 6 6 6 6 7 9
5 6 6 5 5 5 5 4 4 4 4 4 4 3 3 3 2 2 2 1 1 2 3 3 3 3 3 4 4 5 7 5 5 7 7 7 7 11
5 5 5 5 4 4 4 4 4 4 4 3 3 3 3 2 2 1 1 1 1 1 3 4 4 5 4 3 4 5 6 9 8 6 6 7 8 8
5 5 4 4 4 4 4 4 4 3 3 3 3 3 2 2 2 1 1 1 1 2 3 4 4 3 2 3 6 7 7 8 11 12 10 8 6 7
5 5 4 4 4 4 4 5 5 4 4 3 3 3 3 2 2 2 2 2 2 3 3 4 4 3 4 4 5 6 9 9 8 8 9 13 15 17
Wind_Direction
207 205 207 212 201 199 182 173 167 183 204 46 52 33 57 79 85 91 89 90 91 94 94 93 91 89 88 86 82 78 78 76 73 70 64 58 51 42
201 197 208 214 203 197 192 188 178 170 165 81 60 47 62 80 80 86 88 88 89 92 93 92 92 90 89 87 84 82 77 74 73 70 65 58 51 43
195 194 210 199 188 192 181 165 158 145 148 118 68 57 63 75 76 82 85 84 83 86 90 90 90 89 87 86 83 80 79 76 73 69 63 55 48 43
189 181 198 190 176 170 159 155 151 144 143 137 111 75 69 80 83 82 82 84 85 82 84 87 88 88 87 86 83 81 77 72 67 61 55 46 38 32
167 171 179 165 164 151 145 142 133 128 124 130 123 89 77 81 85 80 76 77 83 81 80 80 82 84 82 80 79 76 72 67 62 57 50 41 32 25
115 123 138 156 158 144 135 128 124 118 115 117 114 101 88 78 89 92 83 70 71 72 72 73 73 74 72 72 71 68 63 58 51 45 38 30 23 17
96 91 95 107 117 123 126 126 127 122 118 116 112 105 100 100 105 103 104 93 66 55 65 59 61 62 59 57 59 58 55 50 44 38 32 24 17 10
107 92 85 85 92 95 101 106 116 125 129 123 117 118 120 114 111 117 120 110 82 30 57 52 50 49 47 51 49 50 47 41 35 31 24 16 9 4
111 106 100 93 93 95 89 85 85 92 108 122 121 123 128 138 128 116 105 93 92 66 70 57 37 49 42 41 39 39 37 33 29 25 20 15 8 0
96 104 107 102 105 108 100 89 81 77 89 96 108 109 111 114 116 120 116 100 79 48 50 66 29 26 24 23 26 28 28 28 26 23 18 12 6 359
90 97 107 108 112 111 108 103 95 86 86 91 92 92 93 99 109 110 107 104 82 48 28 65 34 4 1 1 11 18 20 18 15 12 10 6 1 356
91 92 102 110 112 114 115 115 110 104 100 91 84 80 81 82 87 99 118 114 100 73 28 57 40 20 15 345 346 1 7 6 5 4 1 357 355 350
104 99 99 105 105 105 108 112 118 115 104 98 92 84 77 71 66 71 82 101 101 82 57 75 53 32 19 324 328 337 345 346 348 348 348 346 344 340
111 107 103 99 97 97 102 108 109 106 104 101 95 87 81 73 66 69 75 77 80 88 88 94 84 56 15 348 333 330 331 335 336 332 333 334 336 335
106 108 105 100 95 94 98 101 103 105 107 104 100 90 77 75 80 78 71 71 68 64 62 66 69 51 3 316 316 318 322 323 327 331 327 324 320 323
105 103 97 92 91 92 90 87 88 99 108 108 105 93 84 82 78 75 79 71 65 40 29 38 40 32 353 301 288 313 320 317 322 330 327 320 320 320
117 107 103 104 101 96 91 87 90 95 96 99 105 101 94 87 72 62 69 67 63 38 14 7 7 6 285 261 307 323 327 325 323 328 323 323 320 322
115 117 118 119 121 120 117 107 99 101 105 111 111 110 108 101 88 73 72 72 59 31 12 0 0 11 10 346 259 296 321 322 322 320 318 318 319 322
114 123 127 128 128 126 124 120 116 115 117 121 120 120 118 109 100 88 80 69 46 18 359 354 1 12 4 352 333 279 292 316 320 321 319 315 310 312
120 131 135 137 136 137 136 131 129 130 131 132 132 131 131 127 116 103 86 63 30 3 352 349 349 340 325 321 313 307 296 293 313 317 316 312 304 300
131 134 140 145 146 147 148 146 147 149 149 148 150 152 152 144 137 129 109 59 5 347 338 333 325 313 288 279 306 320 316 307 294 291 305 310 319 320
147 152 156 158 158 158 158 157 157 160 163 166 170 170 169 171 176 185 203 256 302 312 311 314 322 326 314 315 319 319 319 322 322 315 295 278 306 318
166 168 171 173 173 170 169 171 174 179 185 187 188 189 188 195 205 213 229 251 283 304 315 320 327 326 318 309 310 311 315 323 325 325 324 317 308 299
Height
1561 1562 1563 1564 1565 1566 1567 1568 1570 1570 1571 1571 1572 1572 1573 1573 1574 1574 1574 1575 1575 1575 1576 1576 1576 1576 1576 1576 1576 1576 1576 1575 1575 1575 1574 1574 1573 1573
1557 1558 1559 1560 1561 1563 1564 1565 1566 1567 1567 1568 1569 1570 1570 1571 1571 1572 1572 1572 1573 1573 1573 1574 1573 1573 1574 1574 1573 1573 1573 1572 1572 1571 1571 1570 1570 1569
1554 1554 1555 1556 1557 1559 1560 1561 1562 1564 1564 1566 1567 1567 1568 1568 1569 1569 1570 1570 1570 1571 1571 1571 1571 1571 1571 1571 1571 1571 1570 1570 1569 1568 1567 1567 1566 1565
1550 1551 1552 1553 1554 1555 1556 1557 1558 1560 1561 1562 1563 1564 1565 1566 1566 1567 1567 1568 1568 1569 1569 1569 1569 1569 1569 1569 1568 1568 1568 1567 1566 1565 1564 1564 1562 1561
1547 1547 1548 1549 1551 1552 1553 1554 1555 1557 1558 1559 1560 1562 1563 1564 1564 1565 1566 1566 1567 1567 1568 1568 1567 1567 1567 1567 1566 1566 1566 1565 1564 1563 1562 1561 1560 1558
1544 1545 1546 1547 1548 1549 1550 1551 1552 1554 1555 1556 1558 1559 1560 1562 1563 1563 1564 1565 1565 1566 1566 1566 1566 1566 1566 1565 1565 1565 1564 1563 1562 1561 1560 1559 1557 1556
1541 1542 1543 1545 1546 1547 1548 1549 1550 1551 1553 1554 1555 1557 1558 1560 1561 1562 1563 1563 1564 1564 1565 1565 1565 1565 1565 1564 1563 1563 1562 1562 1560 1559 1558 1557 1555 1554
1539 1541 1542 1543 1544 1545 1546 1547 1549 1550 1551 1552 1554 1555 1557 1558 1560 1561 1562 1562 1563 1564 1564 1564 1564 1564 1564 1563 1562 1562 1561 1560 1559 1557 1556 1554 1552 1551
1538 1539 1540 1541 1543 1544 1545 1546 1547 1549 1551 1552 1553 1555 1556 1557 1558 1559 1560 1561 1562 1563 1564 1563 1564 1563 1563 1563 1562 1561 1560 1558 1557 1555 1553 1552 1550 1548
1536 1538 1539 1541 1542 1543 1544 1545 1546 1548 1550 1551 1553 1554 1556 1557 1558 1559 1560 1561 1561 1562 1563 1563 1563 1563 1563 1562 1561 1560 1559 1557 1555 1553 1551 1549 1547 1545
1535 1537 1538 1540 1541 1543 1544 1545 1546 1548 1550 1552 1553 1554 1556 1557 1558 1559 1560 1561 1561 1562 1562 1562 1562 1562 1562 1561 1560 1559 1557 1556 1554 1552 1549 1547 1545 1542
1534 1536 1538 1539 1541 1543 1544 1545 1547 1549 1551 1552 1553 1555 1556 1557 1559 1560 1560 1561 1561 1562 1562 1562 1562 1561 1561 1560 1559 1557 1556 1554 1552 1550 1548 1545 1543 1540
1534 1536 1538 1540 1541 1543 1545 1546 1548 1550 1551 1553 1554 1556 1557 1558 1559 1560 1560 1561 1561 1561 1562 1561 1561 1560 1560 1559 1558 1556 1555 1552 1550 1548 1546 1543 1541 1538
1536 1537 1539 1541 1543 1544 1546 1548 1549 1551 1552 1554 1555 1556 1558 1559 1560 1560 1561 1561 1561 1561 1561 1561 1560 1560 1559 1558 1557 1555 1554 1552 1549 1547 1544 1542 1539 1536
1537 1539 1541 1543 1544 1546 1548 1549 1551 1553 1554 1555 1556 1558 1559 1560 1561 1561 1562 1562 1562 1561 1561 1560 1560 1559 1558 1557 1556 1554 1552 1550 1548 1545 1543 1540 1537 1534
1539 1541 1543 1545 1546 1548 1550 1551 1553 1554 1555 1556 1558 1559 1560 1561 1562 1562 1562 1562 1562 1562 1562 1561 1560 1559 1558 1557 1556 1554 1552 1549 1547 1544 1541 1538 1535 1532
1541 1542 1544 1546 1548 1550 1552 1553 1555 1556 1557 1558 1559 1561 1562 1562 1563 1563 1563 1563 1563 1562 1562 1561 1560 1559 1558 1556 1555 1553 1550 1548 1545 1542 1539 1536 1534 1531
1543 1544 1546 1548 1550 1551 1553 1555 1556 1558 1559 1560 1561 1562 1563 1563 1564 1564 1564 1564 1563 1563 1562 1561 1559 1558 1557 1556 1555 1551 1549 1546 1544 1541 1538 1534 1531 1528
1544 1546 1548 1550 1552 1554 1555 1556 1558 1559 1560 1562 1563 1563 1564 1564 1564 1565 1565 1564 1564 1563 1562 1561 1559 1558 1556 1554 1553 1551 1548 1545 1542 1539 1536 1533 1529 1526
1546 1548 1550 1552 1553 1555 1556 1558 1559 1560 1561 1562 1563 1564 1564 1565 1565 1565 1565 1564 1564 1563 1562 1561 1559 1558 1556 1554 1551 1549 1547 1544 1540 1537 1534 1530 1527 1523
1547 1549 1551 1553 1555 1556 1558 1559 1560 1561 1562 1563 1564 1564 1565 1565 1565 1565 1565 1564 1563 1563 1562 1560 1559 1558 1556 1553 1551 1548 1546 1543 1539 1536 1531 1527 1523 1520
1548 1550 1552 1554 1556 1557 1558 1559 1561 1562 1562 1563 1564 1564 1564 1565 1565 1564 1564 1564 1563 1562 1561 1560 1558 1557 1555 1552 1549 1546 1543 1540 1538 1535 1531 1527 1523 1518
1549 1551 1553 1555 1556 1557 1558 1559 1560 1561 1562 1563 1563 1563 1564 1564 1564 1563 1563 1563 1562 1561 1560 1558 1557 1555 1553 1551 1548 1545 1541 1538 1535 1531 1529 1526 1522 1518